Hourly Data Report for September 19, 2017

All times are specified in Local Standard Time (LST). Add 1 hour to adjust for Daylight Saving Time where and when it is observed.

RANKIN INLET A
NUNAVUT

62°48'38.000" N
92°06'53.000" W
32.30 m
2303405
71083
YRT

Download Data

Hourly Data (September 2017)
Hourly Data Report for September 19, 2017
Temp Definition
°C
Dew Point Temp Definition
°C
Rel Hum Definition
%
Wind Dir Definition
10's deg

Wind Spd Definition
km/h
Visibility Definition
km
Stn Press Definition
kPa
Hmdx Definition


Wind Chill Definition


Weather Definition


TIME
00:00 Legend Double Dagger 4.8 4.4 97 32 10 9.7 101.04     Fog
01:00 Legend Double Dagger 5.2 4.1 93 36 3 9.7 101.06     Fog
02:00 Legend Double Dagger 5.0 4.6 97 32 10 24.1 101.06     LegendNANA
03:00 Legend Double Dagger 5.1 4.7 97 33 11 24.1 101.07     Cloudy
04:00 Legend Double Dagger 5.0 4.5 97 33 10 24.1 101.10     LegendNANA
05:00 Legend Double Dagger 4.8 4.3 97 32 13 24.1 101.11     LegendNANA
06:00 Legend Double Dagger 5.1 4.5 96 36 9 24.1 101.14     Mostly Cloudy
07:00 Legend Double Dagger 5.4 4.7 95 36 8 24.1 101.17     LegendNANA
08:00 Legend Double Dagger 6.0 5.2 94 36 13 24.1 101.18     LegendNANA
09:00 Legend Double Dagger 6.6 4.5 87 3 11 24.1 101.21     Mostly Cloudy
10:00 Legend Double Dagger 7.4 3.4 75 1 11 24.1 101.26     LegendNANA
11:00 Legend Double Dagger 7.7 2.8 71 1 9 24.1 101.28     LegendNANA
12:00 Legend Double Dagger 7.9 2.9 71 36 16 24.1 101.31     Mostly Cloudy
13:00 Legend Double Dagger 7.9 2.8 70 32 15 24.1 101.35     LegendNANA
14:00 Legend Double Dagger 8.4 3.3 70 33 13 24.1 101.38     LegendNANA
15:00 Legend Double Dagger 8.7 2.2 63 28 13 24.1 101.41     Mostly Cloudy
16:00 Legend Double Dagger 8.0 3.0 71 34 14 24.1 101.42     LegendNANA
17:00 Legend Double Dagger 7.9 3.7 74 36 15 24.1 101.45     LegendNANA
18:00 Legend Double Dagger 6.4 3.5 81 3 12 24.1 101.49     Mostly Cloudy
19:00 Legend Double Dagger 5.9 3.2 83 5 10 24.1 101.54     LegendNANA
20:00 Legend Double Dagger 3.8 2.5 92 2 8 24.1 101.56     LegendNANA
21:00 Legend Double Dagger 4.5 3.2 92 10 8 24.1 101.63     Mainly Clear
22:00 Legend Double Dagger 4.7 4.2 96 16 6 24.1 101.70     LegendNANA
23:00 Legend Double Dagger 4.8 4.2 96 11 5 16.1 101.75     LegendNANA

Notes on Data Quality.

Legend

  • E = Estimated
  • M = Missing
  • NA = Not Available
  • ‡ = Partner data that is not subject to review by the National Climate Archives
Date modified: